Mullan, ID

11:05 PM PST on February 13, 2016 (GMT -0800)
Mullan Pass

Weather History for KMLP - December, 2013

Change the Weather History Date:

Sunday, December 15, 2013

  Actual Average (K3TH) Record (K3TH)
Temperature  
Mean Temperature 29 °F -  
Max Temperature 30 °F 30 °F 42 °F (1998)
Min Temperature 28 °F 24 °F 25 °F (1996)
Degree Days  
Heating Degree Days 36    
Moisture  
Dew Point 27 °F    
Average Humidity 92    
Maximum Humidity 100    
Minimum Humidity 78    
Precipitation  
Precipitation 0.00 in - - ()
Sea Level Pressure  
Sea Level Pressure 30.18 in    
Wind  
Wind Speed 9 mph (WSW)    
Max Wind Speed 15 mph    
Max Gust Speed 33 mph    
Visibility 7 miles    
Events Fog    
Averages and records for this station are not official NWS values.
T = Trace of Precipitation, MM = Missing Value Source: NWS Daily Summary

Daily Weather History Graph

Daily Weather History Graph

Search for Another Location

Airport or City:

Trip Planner

Search our weather history database for the weather conditions in past years. The results will help you decide how hot, cold, wet, or windy it might be!

Date:

Astronomy

Dec. 15, 2013 Rise Set
Actual Time 7:23 AM PST 3:52 PM PST
Civil Twilight 6:48 AM PST 4:28 PM PST
Nautical Twilight 6:08 AM PST 5:07 PM PST
Astronomical Twilight 5:31 AM PST 5:44 PM PST
Moon 3:04 PM PST (12/15) 5:38 AM PST (12/15)
Length of Visible Light 9h 40m
Length of Day
8h 28m
Waxing Gibbous, 98% of the Moon is Illuminated
Dec 15
Waxing Gibbous
Dec 17
Full
Dec 25
Last Quarter
Jan 1
New
Jan 7
First Quarter

Hourly Weather History & Observations

Time (PST) Temp. Windchill Dew Point Humidity Pressure Visibility Wind Dir Wind Speed Gust Speed Precip Events Conditions
12:53 AM 28.0 °F 21.7 °F 25.0 °F 88% 30.15 in 10.0 mi Variable 5.8 mph - N/A   Mostly Cloudy
1:53 AM 28.0 °F 18.6 °F 24.1 °F 85% 30.15 in 10.0 mi West 10.4 mph 17.3 mph N/A   Overcast
2:53 AM 28.0 °F 22.8 °F 24.1 °F 85% 30.14 in 10.0 mi Variable 4.6 mph - N/A   Mostly Cloudy
3:40 AM 28.4 °F 21.2 °F 23.0 °F 80% 30.19 in 10.0 mi Variable 6.9 mph - N/A   Mostly Cloudy
3:53 AM 28.0 °F 19.3 °F 23.0 °F 81% 30.13 in 10.0 mi West 9.2 mph 17.3 mph N/A   Mostly Cloudy
4:53 AM 28.0 °F 21.7 °F 23.0 °F 81% 30.12 in 10.0 mi Variable 5.8 mph 17.3 mph N/A   Overcast
5:18 AM 28.4 °F 22.2 °F 23.0 °F 80% 30.17 in 10.0 mi Variable 5.8 mph - N/A   Mostly Cloudy
5:39 AM 28.4 °F 19.1 °F 23.0 °F 80% 30.16 in 10.0 mi WSW 10.4 mph 24.2 mph N/A   Mostly Cloudy
5:53 AM 28.9 °F 18.6 °F 23.0 °F 78% 30.11 in 8.0 mi WSW 12.7 mph 28.8 mph 0.00 in   Overcast
6:53 AM 28.9 °F 18.6 °F 23.0 °F 78% 30.11 in 10.0 mi SW 12.7 mph 26.5 mph 0.00 in   Overcast
7:53 AM 28.0 °F 16.5 °F 23.0 °F 81% 30.25 in 10.0 mi SW 15.0 mph 27.6 mph 0.00 in   Overcast
8:36 AM 28.4 °F 17.5 °F 24.8 °F 86% 30.17 in 10.0 mi SW 13.8 mph 26.5 mph N/A   Mostly Cloudy
8:53 AM 28.0 °F 17.0 °F 24.1 °F 85% 30.27 in 10.0 mi SW 13.8 mph 26.5 mph N/A   Overcast
9:15 AM 28.4 °F 17.5 °F 24.8 °F 86% 30.17 in 10.0 mi SW 13.8 mph 27.6 mph N/A   Overcast
9:43 AM 28.4 °F 18.0 °F 26.6 °F 93% 30.17 in 10.0 mi SSW 12.7 mph 25.3 mph N/A   Overcast
9:51 AM 28.4 °F 18.5 °F 26.6 °F 93% 30.17 in 10.0 mi SW 11.5 mph 28.8 mph N/A   Overcast
9:53 AM 28.9 °F 19.2 °F 26.1 °F 89% 30.26 in 10.0 mi SW 11.5 mph 28.8 mph N/A   Overcast
10:05 AM 28.4 °F 18.5 °F 26.6 °F 93% 30.17 in 10.0 mi SSW 11.5 mph 21.9 mph N/A   Overcast
10:53 AM 28.9 °F 21.9 °F 27.0 °F 92% 30.27 in 10.0 mi Variable 6.9 mph - N/A   Overcast
11:53 AM 30.0 °F 21.7 °F 28.9 °F 96% 30.12 in 8.0 mi WSW 9.2 mph 20.7 mph N/A   Overcast
12:07 PM 30.2 °F 22.6 °F 28.4 °F 93% 30.18 in 5.0 mi WSW 8.1 mph 18.4 mph N/A   Overcast
12:30 PM 30.2 °F 19.8 °F 28.4 °F 93% 30.17 in 10.0 mi SW 13.8 mph 24.2 mph N/A   Overcast
12:53 PM 30.0 °F 19.1 °F 28.0 °F 92% 30.25 in 10.0 mi SW 15.0 mph 25.3 mph N/A   Overcast
1:03 PM 30.2 °F 19.3 °F 28.4 °F 93% 30.16 in 10.0 mi SW 15.0 mph 33.4 mph N/A   Overcast
1:53 PM 30.0 °F 20.0 °F 28.0 °F 92% 30.25 in 10.0 mi WSW 12.7 mph 26.5 mph N/A   Overcast
2:53 PM 28.9 °F 20.4 °F 28.0 °F 96% 30.27 in 10.0 mi WSW 9.2 mph 23.0 mph N/A   Overcast
3:53 PM 30.0 °F 22.4 °F 28.0 °F 92% 30.25 in 7.0 mi SW 8.1 mph 20.7 mph N/A   Overcast
4:02 PM 30.2 °F 22.6 °F 28.4 °F 93% 30.16 in 1.8 mi SW 8.1 mph 25.3 mph N/A   Overcast
4:12 PM 30.2 °F 23.4 °F 28.4 °F 93% 30.16 in 0.8 mi Variable 6.9 mph 26.5 mph N/A   Mist
4:53 PM 30.0 °F 23.2 °F 28.9 °F 96% 30.26 in 1.2 mi Variable 6.9 mph 19.6 mph N/A   Overcast
4:56 PM 30.2 °F 23.4 °F 28.4 °F 93% 30.18 in 2.0 mi Variable 6.9 mph - N/A   Overcast
5:04 PM 30.2 °F 21.3 °F 28.4 °F 93% 30.17 in 1.2 mi WSW 10.4 mph 19.6 mph N/A   Overcast
5:13 PM 30.2 °F 23.4 °F 28.4 °F 93% 30.17 in 0.2 mi Variable 6.9 mph 20.7 mph N/A Fog Light Freezing Fog
5:22 PM 30.2 °F 21.3 °F 28.4 °F 93% 30.18 in 0.2 mi WSW 10.4 mph 24.2 mph N/A Fog Light Freezing Fog
5:48 PM 30.2 °F 22.6 °F 30.2 °F 100% 30.18 in 1.0 mi West 8.1 mph 24.2 mph N/A   Mist
5:51 PM 30.2 °F 23.4 °F 30.2 °F 100% 30.18 in 3.0 mi Variable 6.9 mph - N/A   Overcast
5:53 PM 30.0 °F 21.7 °F 30.0 °F 100% 30.13 in 6.0 mi West 9.2 mph - N/A   Overcast
6:16 PM 30.2 °F 24.3 °F 30.2 °F 100% 30.19 in 1.8 mi Variable 5.8 mph - N/A   Overcast
6:20 PM 30.2 °F 21.9 °F 30.2 °F 100% 30.18 in 1.0 mi West 9.2 mph 21.9 mph N/A   Mist
6:27 PM 30.2 °F 21.9 °F 30.2 °F 100% 30.19 in 0.5 mi WSW 9.2 mph 21.9 mph N/A Fog Light Freezing Fog
6:46 PM 30.2 °F 21.9 °F 30.2 °F 100% 30.19 in 0.2 mi West 9.2 mph 26.5 mph N/A Fog Light Freezing Fog
6:53 PM 30.0 °F 25.2 °F 30.0 °F 100% 30.13 in 0.2 mi Variable 4.6 mph 26.5 mph N/A Fog Light Freezing Fog
7:05 PM 30.2 °F 24.3 °F 30.2 °F 100% 30.18 in 1.0 mi Variable 5.8 mph 25.3 mph N/A   Mist
7:08 PM 30.2 °F 20.8 °F 30.2 °F 100% 30.18 in 2.0 mi West 11.5 mph 27.6 mph N/A   Overcast
7:15 PM 30.2 °F 23.4 °F 28.4 °F 93% 30.18 in 10.0 mi Variable 6.9 mph 27.6 mph N/A   Overcast
7:53 PM 30.0 °F 25.2 °F 30.0 °F 100% 30.26 in 10.0 mi Variable 4.6 mph 19.6 mph N/A   Overcast
8:53 PM 30.0 °F 24.1 °F 30.0 °F 100% 30.27 in 10.0 mi Variable 5.8 mph - N/A   Overcast
9:53 PM 30.0 °F 22.4 °F 28.9 °F 96% 30.13 in 10.0 mi West 8.1 mph 18.4 mph N/A   Overcast
10:53 PM 28.9 °F 22.8 °F 28.9 °F 100% 30.28 in 10.0 mi Variable 5.8 mph 17.3 mph N/A   Overcast
11:53 PM 28.9 °F 21.1 °F 28.9 °F 100% 30.13 in 4.0 mi WNW 8.1 mph 25.3 mph N/A   Overcast